Wichita Jabara, KS

7:27 AM CST on November 24, 2017 (GMT -0600)
Col Jabara

Weather History for KAAO - August, 2013

Change the Weather History Date:

Saturday, August 3, 2013

  Actual Average (KIAB) Record (KIAB)
Temperature  
Mean Temperature 78 °F -  
Max Temperature 86 °F 88 °F 106 °F (2010)
Min Temperature 73 °F 68 °F 66 °F (1996)
Cooling Degree Days 14    
Growing Degree Days 28 (Base 50)    
Moisture  
Dew Point 73 °F    
Average Humidity 83    
Maximum Humidity 100    
Minimum Humidity 69    
Precipitation  
Precipitation 0.40 in - - ()
Sea Level Pressure  
Sea Level Pressure 29.97 in    
Wind  
Wind Speed 10 mph (SE)    
Max Wind Speed 17 mph    
Max Gust Speed 25 mph    
Visibility 10 miles    
Events Rain , Thunderstorm    
Averages and records for this station are not official NWS values.
T = Trace of Precipitation, MM = Missing Value Source: NWS Daily Summary

Daily Weather History Graph

Daily Weather History Graph

Search for Another Location

Airport or City:

Trip Planner

Search our weather history database for the weather conditions in past years. The results will help you decide how hot, cold, wet, or windy it might be!

Date:

Astronomy

Aug. 03, 2013 Rise Set
Actual Time 6:34 AM CDT 8:35 PM CDT
Civil Twilight 6:05 AM CDT 9:03 PM CDT
Nautical Twilight 5:30 AM CDT 9:39 PM CDT
Astronomical Twilight 4:52 AM CDT 10:16 PM CDT
Moon 3:45 AM CDT (8/3) 6:17 PM CDT (8/3)
Length of Visible Light 14h 58m
Length of Day
14h 00m
Waning Crescent, 9% of the Moon is Illuminated
Aug 3
Waning Crescent
Aug 6
New
Aug 14
First Quarter
Aug 20
Full
Aug 28
Last Quarter

Hourly Weather History & Observations

Time (CDT) Temp. Heat Index Dew Point Humidity Pressure Visibility Wind Dir Wind Speed Gust Speed Precip Events Conditions
12:06 AM 80.6 °F 88.1 °F 78.8 °F 94% 29.96 in 10.0 mi NNW 15.0 mph - 0.00 in Rain Light Rain
12:21 AM 77.0 °F - 75.2 °F 94% 29.96 in 10.0 mi NNW 12.7 mph - 0.02 in Rain , Thunderstorm Light Rain
12:31 AM 75.2 °F - 75.2 °F 100% 29.97 in 10.0 mi North 12.7 mph - 0.04 in Rain , Thunderstorm Light Thunderstorms and Rain
12:54 AM 75.9 °F - 75.0 °F 97% 29.93 in 10.0 mi NE 4.6 mph - 0.08 in Rain , Thunderstorm Rain
1:03 AM 75.2 °F - 75.2 °F 100% 29.97 in 9.0 mi Calm Calm - 0.02 in Rain Rain
1:14 AM 75.2 °F - 75.2 °F 100% 29.98 in 8.0 mi Calm Calm - 0.05 in Rain , Thunderstorm Rain
1:29 AM 75.2 °F - 75.2 °F 100% 29.97 in 8.0 mi SSE 3.5 mph - 0.08 in Rain Rain
1:54 AM 75.9 °F - 75.0 °F 97% 29.93 in 6.0 mi Calm Calm - 0.12 in Rain Rain
2:20 AM 77.0 °F - 75.2 °F 94% 29.97 in 10.0 mi SW 9.2 mph - 0.04 in Rain , Thunderstorm Light Rain
2:54 AM 73.9 °F - 71.1 °F 91% 29.91 in 10.0 mi South 16.1 mph 25.3 mph 0.10 in Rain , Thunderstorm Light Thunderstorms and Rain
3:30 AM 73.4 °F - 66.2 °F 78% 29.92 in 10.0 mi South 12.7 mph - 0.00 in   Partly Cloudy
3:54 AM 75.0 °F - 66.9 °F 76% 29.87 in 10.0 mi South 13.8 mph - 0.00 in   Clear
4:43 AM 73.4 °F - 66.2 °F 78% 29.91 in 10.0 mi SSE 11.5 mph - N/A Thunderstorm Partly Cloudy
4:54 AM 75.0 °F - 66.9 °F 76% 29.90 in 10.0 mi SW 11.5 mph - N/A Thunderstorm Thunderstorm
5:25 AM 73.4 °F - 69.8 °F 88% 29.90 in 10.0 mi South 17.3 mph - 0.10 in   Overcast
5:54 AM 77.0 °F - 69.1 °F 76% 29.85 in 10.0 mi South 15.0 mph 23.0 mph 0.10 in   Partly Cloudy
6:54 AM 73.0 °F - 69.1 °F 87% 29.90 in 10.0 mi North 8.1 mph - N/A   Scattered Clouds
7:54 AM 73.0 °F - 70.0 °F 90% 29.94 in 10.0 mi NE 8.1 mph - N/A   Scattered Clouds
8:54 AM 77.0 °F - 72.0 °F 84% 29.95 in 10.0 mi ENE 10.4 mph - N/A   Clear
9:54 AM 80.1 °F 84.2 °F 73.0 °F 79% 29.96 in 10.0 mi East 13.8 mph 18.4 mph N/A   Partly Cloudy
10:54 AM 82.0 °F 86.7 °F 72.0 °F 71% 29.97 in 10.0 mi ESE 16.1 mph - N/A   Clear
11:54 AM 82.0 °F 87.9 °F 73.9 °F 76% 29.98 in 10.0 mi ESE 15.0 mph 21.9 mph N/A   Scattered Clouds
12:54 PM 84.0 °F 91.2 °F 73.9 °F 72% 29.97 in 10.0 mi SE 15.0 mph 21.9 mph N/A   Scattered Clouds
1:28 PM 82.4 °F 88.2 °F 73.4 °F 74% 30.02 in 10.0 mi SE 11.5 mph 20.7 mph N/A   Mostly Cloudy
1:41 PM 84.2 °F 92.3 °F 75.2 °F 74% 30.02 in 10.0 mi SSE 12.7 mph - N/A   Scattered Clouds
1:54 PM 82.9 °F 89.4 °F 73.9 °F 74% 29.98 in 10.0 mi SE 13.8 mph - N/A   Mostly Cloudy
2:46 PM 84.2 °F 90.9 °F 73.4 °F 70% 30.02 in 10.0 mi SSE 13.8 mph 20.7 mph N/A   Scattered Clouds
2:54 PM 84.9 °F 92.1 °F 73.9 °F 69% 29.98 in 10.0 mi SE 12.7 mph - N/A   Partly Cloudy
3:54 PM 82.9 °F 88.8 °F 73.0 °F 72% 29.99 in 10.0 mi ESE 10.4 mph - N/A   Partly Cloudy
4:54 PM 82.9 °F 89.4 °F 73.9 °F 74% 29.99 in 10.0 mi SE 11.5 mph - N/A   Mostly Cloudy
5:04 PM 82.4 °F 88.2 °F 73.4 °F 74% 30.02 in 10.0 mi ESE 11.5 mph - N/A   Mostly Cloudy
5:54 PM 82.0 °F 86.7 °F 72.0 °F 71% 29.98 in 10.0 mi ESE 10.4 mph - N/A   Partly Cloudy
6:54 PM 81.0 °F 85.2 °F 72.0 °F 74% 30.00 in 10.0 mi SE 8.1 mph - N/A   Clear
7:54 PM 80.1 °F 84.2 °F 73.0 °F 79% 30.01 in 10.0 mi ESE 5.8 mph - N/A   Mostly Cloudy
8:54 PM 78.1 °F - 73.0 °F 84% 30.01 in 10.0 mi SE 5.8 mph - N/A   Scattered Clouds
9:54 PM 78.1 °F - 72.0 °F 81% 30.03 in 10.0 mi SE 6.9 mph - N/A   Mostly Cloudy
10:54 PM 75.9 °F - 73.0 °F 91% 30.04 in 10.0 mi East 4.6 mph - 0.00 in Rain Light Rain
11:54 PM 75.9 °F - 72.0 °F 87% 30.03 in 10.0 mi ESE 6.9 mph - N/A   Mostly Cloudy